Regional Weather Roundup
Issued by NWS Wakefield, VA

Home | Current Version | Previous Version | Text Only | Print | Product List | Glossary Off
Versions: 1 2 3 4 5 6 7 8 9 10 11 12 13 14 15 16 17 18 19 20 21 22 23 24 25 26 27 28

000
ASUS41 KAKQ 182115
RWRAKQ

REGIONAL WEATHER ROUNDUP
NATIONAL WEATHER SERVICE WAKEFIELD VA
500 PM EDT FRI AUG 18 2017

Note: "fair" indicates few or no clouds below 12,000 feet with no
significant weather and/or obstructions to visibility. * = Denotes
station may not report precipitation (e.g., rain,snow,etc.),
thunder or fog.

VAZ042-051-052>054-056-182200-
NORTHERN VIRGINIA

CITY           SKY/WX    TMP DP  RH WIND       PRES   REMARKS
WASH NATIONAL  PTSUNNY   91  80  70 S13       29.74F HX 109
DULLES         CLOUDY    91  73  55 SW10G18   29.75F HX  99
FORT BELVOIR   MOSUNNY   90  76  64 S6        29.74F HX 102
QUANTICO       TSTM      84  77  79 W25G36    29.79R VSB 1/2
FREDERICKSBRG* MOSUNNY   93  76  59 S7        29.75F HX 105
STAFFORD*      TSTM      83  78  86 N9        29.80F
WARRENTON      LGT RAIN  91  68  46 SW14      29.77S HX  95
CULPEPER*      CLOUDY    86  76  72 NW8       29.78S HX  96
MANASSAS*      CLOUDY    92  78  63 S8        29.75F HX 107
LEESBURG*      CLOUDY    79  77  94 N25G41    29.75F
WINCHESTER     LGT RAIN  77  72  83 W12       29.81F
FRONT ROYAL*   CLOUDY    81  73  78 NW14G20   29.81R
LURAY*         TSTM      73  72  94 SE5       29.85R
$$

VAZ048-049-060>072-079>083-182200-
CENTRAL AND SOUTH CENTRAL VIRGINIA

CITY           SKY/WX    TMP DP  RH WIND       PRES   REMARKS
RICHMOND       MOSUNNY   91  77  63 S17       29.80F HX 104
CHESTERFIELD*  FAIR      92  77  61 SW12      29.81F HX 105
PETERSBURG*    MOSUNNY   91  74  56 S10G17    29.82F HX 100
HANOVER        PTSUNNY   92  75  57 S12       29.79F HX 103
TAPPAHANNOCK*  SUNNY     92  69  46 S9        29.80F HX  98
QUINTON*       FAIR     N/A N/A N/A S7        29.79F
CHARLOTTSVILLE PTSUNNY   90  73  57 CALM      29.79F HX  98
GORDONSVILLE*  CLOUDY    87  76  70 CALM      29.78F HX  97
ORANGE*        CLOUDY    86  75  70 S3        29.78F HX  95
LOUISA*        MOSUNNY   91  72  52 S5        29.78F HX  98
BUMPASS*       MOCLDY    93  74  54 SW7       29.78F HX 103
FARMVILLE*     SUNNY     95  64  35 S12       29.78F HX  96
CREWE*         FAIR      91  71  51 S9        29.81F HX  98
FORT PICKETT*  FAIR     N/A N/A N/A S12       29.82F
CHASE CITY*    FAIR      93  75  56 S7        29.83F HX 104
CLARKSVILLE*   FAIR      91  77  62 S6        29.83S HX 105
SOUTH HILL*    PTSUNNY   90  78  68 S7        29.88F HX 104
LAWRENCEVILLE* MOCLDY    90  78  67 S7        29.83F HX 103
EMPORIA*       SUNNY     91  77  62 S6        29.84F HX 105
$$

VAZ088>098-182200-
SOUTHEAST VIRGINIA

CITY           SKY/WX    TMP DP  RH WIND       PRES   REMARKS
NORFOLK        CLOUDY    93  78  61 S17G23    29.81S HX 108
VIRGINIA BEACH CLOUDY    89  77  67 S9        29.83R HX 101
NORFOLK NAVAL  MOSUNNY   93  75  55 SW8       29.83S HX 104
WEST POINT*    MOSUNNY   91  75  59 S9        29.81F HX 101
SALUDA*        FAIR      92  80  68 S9G16     29.80S HX 111
NEWPORT NEWS   MOSUNNY   93  77  59 SW13      29.81F HX 107
LANGLEY AFB    NOT AVBL
FORT EUSTIS    SUNNY     94  78  58 SW7       29.80S HX 110
WILLIAMSBURG*  SUNNY     95  79  59 SW5       29.82F HX 112
HR EXEC AP*    FAIR      93  77  59 SW13G20     N/A  HX 107
FRANKLIN*      SUNNY     92  76  59 SW10      29.83F HX 105
US460-WAKEFLD  MOSUNNY   91  78  65 SW8       29.82F HX 106
$$

VAZ020-022-025-037-045-182200-
WEST CENTRAL AND SOUTHWEST VIRGINIA

CITY           SKY/WX    TMP DP  RH WIND       PRES   REMARKS
STAUNTON*      CLOUDY    84  71  66 W10       29.87F HAZE
WAYNESBORO*    CLOUDY    83  73  72 SW6       29.88R
HOT SPRINGS VA PTSUNNY   73  68  83 W13       30.03S
LYNCHBURG      CLOUDY    88  71  57 S10       29.84F
DANVILLE       MOSUNNY   91  72  53 SW8       29.84S HX  98
SOUTH BOSTON*  MOCLDY    93  74  54 S8        29.83S HX 102
MARTINSVILLE   MOSUNNY   91  72  54 W3        29.88F HX  98
ROANOKE        CLOUDY    88  68  51 W9G18     29.89S
BLACKSBURG     CLOUDY    75  73  92 CALM      29.99S
DUBLIN*        CLOUDY    78  72  83 W8        29.98S
MARION*        CLOUDY    73  59  62 W8        30.04R
HILLSVILLE*    CLOUDY    80  65  60 CALM      29.98S
RICHLANDS*     FAIR      73  63  69 W3        30.03F
WISE*          MOSUNNY   79  63  57 W12       30.03F
ABINGDON*      MOSUNNY   80  70  70 N3        29.99F
$$

MDZ021>025-VAZ099-100-182200-
SOUTHERN MARYLAND AND THE DELMARVA PENINSULA

CITY           SKY/WX    TMP DP  RH WIND       PRES   REMARKS
PATUXENT RIVER MOSUNNY   90  79  70 S10       29.77F HX 106
BAY BRIDGE APT SUNNY     90  79  70 S15       29.75F HX 105
LEONARDTOWN    MOSUNNY   90  75  62 S9        29.79F HX 100
DOVER          SUNNY     91  77  62 S16       29.74F HX 105
GEORGETOWN     PTSUNNY   91  80  70 S13       29.78F HX 109
EASTON         PTSUNNY   91  79  66 S17G24    29.80  HX 107
CAMBRIDGE      MOSUNNY   88  81  79 S10       29.78S HX 105
SALISBURY      MOSUNNY   89  81  77 S13       29.79F HX 108
OCEAN CITY     PTSUNNY   82  79  90 S12G24    29.82S
WALLOPS ISLAND SUNNY     84  81  90 S22G29    29.82F HX  99
ACCOMACK*      MOSUNNY   87  80  80 S12G24    29.82S HX 102
$$

NCZ012>017-030>032-182200-
NORTH CENTRAL AND EASTERN NORTH CAROLINA

CITY           SKY/WX    TMP DP  RH WIND       PRES   REMARKS
ROANOKE RAPIDS FAIR      91  79  66 S8        29.84F HX 107
RALEIGH        PTSUNNY   94  73  50 S8        29.84F HX 103
ELIZABETH CITY CLOUDY    85  79  82 S15G22    29.86F HX  98
AHOSKIE*         N/A     91  79  67 S5        29.84F HX 107
EDENTON*       CLOUDY    84  76  76 S14       29.88F
CURRITUCK*     CLOUDY    87  74  64 S9G17     29.86F HX  95
KILL DEVIL HLS CLOUDY    79  74  84 CALM      29.87F
MANTEO         CLOUDY    82  73  74 S10       29.88F
CAPE HATTERAS  CLOUDY    86  82  88 SW12      29.92S HX 104
TARBORO*       NOT AVBL
GOLDSBORO      MOSUNNY   95  77  55 SW10      29.85F HX 109
WASHINGTON     CLOUDY    86  76  73 S9        29.87F HX  96
GREENVILLE     MOSUNNY   93  79  62 S16       29.88S HX 110
NEW BERN       CLOUDY    86  82  88 S8        29.89F HX 104
WILMINGTON     CLOUDY    93  77  59 S15       29.88S HX 107
$$

VAZ048-182200-
ELSEWHERE

CITY           SKY/WX    TMP DP  RH WIND       PRES   REMARKS
HARRISBURG PA  CLOUDY    81  76  84 SW3       29.76S
BALTIMORE      PTSUNNY   89  75  63 S10G18    29.71F THUNDER HX  99
ANNAPOLIS      MOSUNNY   88  82  82 S20G29    29.73F HX 108
ANDREWS AFB    MOSUNNY   90  77  66 S16       29.74F HX 102
PHILADELPHIA   CLOUDY    88  76  67 S7        29.77R HX  99
HENDERSON NC   SUNNY     90  73  58 S5        29.84F HX  98
GREENSBORO     MOSUNNY   92  73  53 SW12      29.86F HX 100
ROCKY MOUNT    SUNNY     93  77  59 SW8       29.85F HX 107
$$

VAZ100-182200-
MARINE

STATION/POSITION TIME  TEMP    WIND        PRES    WAVE   SWELL
                       AIR SEA DIR/SP/G            HT/PER HT/PER
                 (UTC) (F)     (DEG/KT/KT) (MB)    (FT/S) (FT/S)
BRANDYWINE LGT   2042   79     180/ 21/ 23 1008.3F
CAPE MAY NJ      2048   80 81  170/ 14/ 22 1008.0F
LEWES DE         2048   85 77  180/ 11/ 15 1008.1F
15NM E FENWICK I 2050   80 78  180/ 19/ 21 1009.4F   3/ 5   2/ 8
OCEAN-CITY-INLET 2048   79 77  210/ 15/ 17 1009.9F
WACHAPREAGUE VA  2048   84 86  200/ 21/ 25 1009.7F
THOMAS POINT MD  2100   83 81  170/ 20/ 22   N/A
GOOSES REEF MD   2100   84 81  170/ 14/ 17 1008.4    2/ 3
COVE POINT MD    2048   83     190/ 14/ 15 1009.1F
SOLOMONS ISLAND  2048   89 81  200/ 14/ 17   N/A
BISHOPS HEAD MD  2048   87 85  190/ 19/ 21 1008.8F
PINEY POINT MD   2048          210/ 11/ 13   N/A
POTOMAC MD       2100   86 84  170/ 12/ 14 1007.7    1/ 3
CAMBRIDGE MD     2048   90 82              1009.2F
LEWISETTA VA     2048   90 85  220/ 12/ 15 1008.4F
RAPPAHANNOCK LGT 2048          170/ 14/ 17 1010.2F
STINGRAY PT      2100   84 82  200/ 17/ 19 1009.7    2/ 3
YORK RVR RNG VA  2048   83     150/ 18/ 21 1010.1R
YORKTOWN VA      2048   92 83  210/  9/ 14 1009.2S
JAMESTOWN VA     2100      85  210/  8/ 12   N/A     0
DOMINION TERM VA 2048   89     220/  8/ 10 1009.9F
KIPTOPEKE VA     2048      83  150/ 19/ 27   N/A
CHES BAY BRIDGE  2048   81 79   80/ 25/ 27 1009.9F
CAPE HENRY VA    2048   83     110/ 19/ 24   N/A
WILLOUBY STN VA  2048   84      80/  4/  6 1009.9R
S CRANEY ISL VA  2048   93     230/ 11/ 16 1009.7S
CAPE HENRY BUOY  2030      80                N/A     3/ 4
1ST LANDING BUOY 2100   83 81              1009.8    3/ 3
64NM E OF VA BCH 2050   80 78  190/ 14/ 16 1011.8F   3/ 9   2/ 9
DUCK PIER NC     2048   82 74  190/ 13/ 17 1010.8F
44056 DUCK FRF   2100      79                N/A     2/ 8
OREGON INLET NC  2042   81 86  200/ 17/ 23 1012.3R
HATTERAS NC      2048   85 84  230/  7/ 13 1013.1S
DIAMOND SHLS NC  2050   86 86  210/ 14/ 16 1012.9F   3/ 5   2/ 8
CAPE LOOKOUT NC  2100   86     200/ 13/ 17 1012.4F
$$




USA.gov is the U.S. government's official web portal to all federal, state and local government web resources and services.